FENGYUN 1C DEB, 36198

Orbit data source: Space-Track

FENGYUN 1C DEB, 36198 is space debris in SSO originally from a launch on Mon, 10 May 1999 UTC launched from the Taiyaun Space Center, China (TSC). Fengyun 1C debris stems from the Chinese weather satellite Fengyun-1C, which was intentionally destroyed by a Chinese anti-satellite missile in 2007. This event dramatically increased the amount of space debris, with thousands of trackable fragments posing hazards to satellites and human spaceflight. The Fengyun 1C debris cloud has become a focal point in discussions about space sustainability and the need for international regulations to prevent the creation of new debris.

Loading next visibility...
Identifier
36198, 1999-025DTX
Orbit
SSO
Country
Flag of CNCN / PRC
Related business
Manufacturer
Unknown
Mission
Spacecraft
Bus & Motor
Unknown
Mass
Unknown
Launch date (UTC)
1999-05-10 (27 years ago)
Launch vehicle
Unknown
Launch site
Taiyaun Space Center, China (TSC)
Object type
Payload
Rocket body
Debris
Shape & HBR
Unknown shape, 0.1 m
Radar Cross Section
Small (<0.1 m²)

Expand to show TLE details & history
Last TLE update: 2 days ago

TLE from 2 days ago
0 FENGYUN 1C DEB
1 36198U 99025DTX 26072.52338313  .00002615  00000-0  14854-2 0  9995
2 36198  98.6132 102.8158 0097035 216.3322 143.1235 14.08404419648659
Epoch: 2026-03-13T12:33Z
TLE epoch observation values (Epoch: 2026-03-13T12:33:40.302Z)
Latitude
0.00001°
Longitude
103.24018°
Altitude
924.213 km
Speed
7.361 km/s
True Right ascension
06h 51m 15s
True Declination
0° 00' 00"
Sunlit
Object was in daylight at epoch
Visualization orbit readout
Latitude
Unknown
Longitude
Unknown
Altitude
Unknown
Speed
Unknown
Apparent Right ascension
Unknown
Apparent Declination
Unknown
Sunlit
N/A
Visualization observer readout
Local Sidereal Time
22:36:57
Azimuth
Unknown
Elevation
Unknown
Doppler factor
Unknown
Orbital elements
Apogee altitude
932.261 km
Perigee altitude
791.751 km
Semi-major axis
7,240.143 km
Eccentricity
0.0097
Inclination
98.6132°
RAAN
102.8158°
Arg. of periapsis
216.3322°
True anomaly
143.78434°
Mean anomaly
143.1235°
Eccentric anomaly
143.45456°
Mean motion
3.52308 °/min
Orbital period
102.18 mins
BSTAR
0.0014854
Loading maneuver chart data...
Computing Atmospheric mass density...

Documentation

Showing up to 5 results
|